AirNav   Air Wisconsin pilot careers
 
 398 users online  

2KY0 Jane Todd Crawford Hospital Heliport
Greensburg, Kentucky, USA

GOING TO GREENSBURG?


FAA INFORMATION EFFECTIVE 24 MAY 2018

Location

FAA Identifier: 2KY0
Lat/Long: 37-14-35.7600N / 085-29-34.8700W
37-14.596000N / 085-29.581167W
37.2432667 / -85.4930194
(estimated)
Elevation: 625 ft. / 190 m (estimated)
Variation: 03W (1995)
From city: 1 mile SE of GREENSBURG, KY
Time zone: UTC -5 (UTC -6 during Standard Time)
Zip code: 42743

Heliport Operations

Heliport use: Private use, MEDICAL USE.
Activation date: 06/1998
Control tower: no
ARTCC: INDIANAPOLIS CENTER
FSS: LOUISVILLE FLIGHT SERVICE STATION
Attendance: UNATNDD
Wind indicator: lighted
Segmented circle: no

Heliport Communications

WX AWOS-3 at AAS (11 nm NE): 121.125 (270-789-1985)

Nearby radio navigation aids

VOR radial/distance  VOR name  Freq  Var
EWOr159/24.9NEW HOPE VOR/DME110.8001E

Heliport Services

Runway Information

Helipad H1

Dimensions: 24 x 24 ft. / 7 x 7 m
Surface: concrete
Latitude: 37-14.596000N
Longitude: 085-29.581167W
Elevation: 625.0 ft.
Traffic pattern: leftleft

Heliport Ownership and Management from official FAA records

Ownership: Privately-owned
Owner: JANE TODD CRAWFORD HOSPITAL
202-206 MILBY STREET
GREENSBURG, KY 42743
Phone 270-932-4211
Manager: HENRY SHUFFETT
PO BOX 313
GREENSBURG, KY 42743
Phone 270-405-1299

Heliport Operational Statistics

Aircraft based on the field: 1
Helicopters: 1
    

Additional Remarks

A52-H1 25 FT POWER LINES 105 FT SSE; 40 FT TREES 110 FT N; 130 FT ANT TWR 350 YARDS W.

Instrument Procedures

There are no published instrument procedures at 2KY0.

Some nearby airports with instrument procedures:

KAAS - Taylor County Airport (11 nm NE)
K24 - Russell County Airport (23 nm SE)
KGLW - Glasgow Municipal Airport (25 nm SW)
6I2 - Lebanon Springfield Airport-George Hoerter Field (26 nm NE)
KTZV - Tompkinsville-Monroe County Airport (32 nm S)
 
Loc | Ops | Rwys | IFR | FBO | Links
Com | Nav | Svcs | Stats | Notes

AirNav Hotels Sweepstakes
 
Area around 2KY0 (Jane Todd Crawford Hospital Heliport)
 
Road maps at: MapQuest Bing Google
 
Aerial photo
No photo
 
Sectional chart

 
Airport distance calculator
Flying to Jane Todd Crawford Hospital Heliport? Find the distance to fly.

From to 2KY0

Sunrise and sunset
Times for 25-May-2018
 Local
(UTC-5)
 Zulu
(UTC)
Morning civil twilight04:5709:57
Sunrise05:2710:27
Sunset19:5000:50
Evening civil twilight20:2001:20

Current date and time
Zulu (UTC)  25-May-2018 09:13:22
Local (UTC-5)  25-May-2018 04:13:22
 
METAR
KGLW 
25nm SW 
250850Z AUTO 00000KT 7SM SCT060 17/15 A3003 RMK AO2 T01670153
K6I2 
26nm NE 
250850Z AUTO 00000KT 9SM CLR 17/16 A3004 RMK AO2
KEKX 
34nm NW 
250855Z AUTO 00000KT 10SM CLR 15/15 A3004 RMK AO2 T01520151
KBRY 
34nm N 
250855Z AUTO 00000KT 10SM CLR 15/15 A3003 RMK AO1
KEKQ 
38nm SE 
250856Z AUTO VRB06KT 10SM CLR 19/18 A3007 RMK AO2 SLP190 6//// T01890178 55003 PNO $
KDVK 
40nm NE 
250855Z AUTO 00000KT 10SM BKN065 16/15 A3006 RMK AO2
KSME 
43nm E 
250855Z AUTO 10SM SCT080 17/17 A3006 RMK AO2
KFTK 
45nm NW 
250856Z AUTO 00000KT 10SM CLR 14/14 A3004 RMK AO2 SLP171 T01440142 56011
KBWG 
47nm W 
250853Z AUTO 00000KT 8SM CLR 19/18 A3002 RMK AO2 SLP161 T01890183 55010
TAF
KSME 
43nm E 
250532Z 2506/2606 VRB03KT P6SM FEW250 FM251500 VRB05KT P6SM VCTS SCT050CB BKN150 FM260000 VRB03KT P6SM SCT200
KFTK 
45nm NW 
250100Z 2501/2607 VRB06KT 9999 FEW250 QNH2984INS TX31/2521Z TN16/2512Z
KBWG 
47nm W 
250520Z 2506/2606 00000KT P6SM SCT250 FM251700 21006KT P6SM SCT045
NOTAMs
Click for the latest NOTAMs
NOTAMs are issued by the DoD/FAA and will open in a separate window not controlled by AirNav.

 

 
 

Would you like to see your business listed on this page?

 If your business provides an interesting product or service to pilots, flight crews, aircraft, or users of the Jane Todd Crawford Hospital Heliport, you should consider listing it here.  To start the listing process, click on the button below
 
Add a business
 

Other Pages about Jane Todd Crawford Hospital Heliport

Update a link
 
Copyright © AirNav, LLC. All rights reserved. Privacy Policy  Contact